• In Czech Republic
  • List of Countries
  • For 7 days
  • Water Temperature
  • Satellite Maps
  • Weather Map
  • Weather Widgets
  • user-avatar
    Login

    Hourly Weather Cambridge

    Today, 16 December, Saturday

    Time Temperature Precipitation Wind Pressure Humidity
    00:00 0°C° 0 mm 5 mps 756 mmHg 88%
    01:00 -1°C° 0 mm 5 mps 756 mmHg 87%
    02:00 -1°C° 0 mm 5 mps 756 mmHg 86%
    03:00 -1°C° 0 mm 5 mps 757 mmHg 86%
    04:00 -1°C° 0 mm 5 mps 757 mmHg 85%
    05:00 -2°C° 0 mm 4 mps 758 mmHg 85%
    06:00 -2°C° 0 mm 4 mps 759 mmHg 85%
    07:00 -2°C° 0 mm 4 mps 759 mmHg 84%
    08:00 -2°C° 0 mm 4 mps 760 mmHg 83%
    09:00 -2°C° 0 mm 4 mps 760 mmHg 82%
    10:00 0°C° 0 mm 4 mps 760 mmHg 77%
    11:00 +1°C° 0 mm 4 mps 761 mmHg 72%
    12:00 +3°C° 0 mm 4 mps 761 mmHg 68%
    13:00 +1°C° 0 mm 4 mps 761 mmHg 72%
    14:00 +1°C° 0 mm 4 mps 761 mmHg 76%
    15:00 +1°C° 0 mm 4 mps 761 mmHg 80%
    16:00 +1°C° 0 mm 3 mps 762 mmHg 84%
    17:00 +1°C° 0 mm 3 mps 762 mmHg 87%
    18:00 0°C° 0 mm 3 mps 762 mmHg 91%
    19:00 0°C° 0 mm 3 mps 763 mmHg 90%
    20:00 0°C° 0 mm 3 mps 763 mmHg 89%
    21:00 -1°C° 0 mm 3 mps 764 mmHg 88%
    22:00 -1°C° 0 mm 3 mps 764 mmHg 87%
    23:00 -1°C° 0 mm 3 mps 765 mmHg 87%

    Tomorrow, 17 December, Sunday

    Time Temperature Precipitation Wind Pressure Humidity
    00:00 -1°C° 0 mm 2 mps 765 mmHg 86%
    01:00 -1°C° 0 mm 2 mps 765 mmHg 86%
    02:00 -1°C° 0 mm 2 mps 765 mmHg 85%
    03:00 -1°C° 0 mm 2 mps 766 mmHg 85%
    04:00 -1°C° 0 mm 2 mps 766 mmHg 85%
    05:00 -1°C° 0 mm 2 mps 766 mmHg 86%
    06:00 -1°C° 0 mm 2 mps 766 mmHg 86%
    07:00 -1°C° 0 mm 2 mps 766 mmHg 87%
    08:00 +1°C° 0 mm 2 mps 766 mmHg 89%
    09:00 +1°C° 0 mm 2 mps 766 mmHg 90%
    10:00 +1°C° 0 mm 3 mps 766 mmHg 88%
    11:00 +1°C° 0 mm 4 mps 766 mmHg 86%
    12:00 +4°C° 0 mm 4 mps 766 mmHg 83%
    13:00 +4°C° 0.1 mm 4 mps 765 mmHg 86%
    14:00 +4°C° 0.1 mm 4 mps 765 mmHg 89%
    15:00 +4°C° 0.1 mm 4 mps 764 mmHg 91%
    16:00 +3°C° 0.2 mm 5 mps 764 mmHg 92%
    17:00 +5°C° 0.2 mm 5 mps 763 mmHg 93%
    18:00 +4°C° 0.2 mm 6 mps 763 mmHg 94%
    19:00 +5°C° 0 mm 5 mps 763 mmHg 94%
    20:00 +6°C° 0 mm 5 mps 763 mmHg 95%
    21:00 +6°C° 0 mm 5 mps 764 mmHg 95%
    22:00 +5°C° 0 mm 4 mps 764 mmHg 94%
    23:00 +5°C° 0 mm 4 mps 765 mmHg 94%

    Day after tomorrow, 18 December, Monday

    Time Temperature Precipitation Wind Pressure Humidity
    00:00 +4°C° 0 mm 4 mps 765 mmHg 93%
    01:00 +4°C° 0 mm 4 mps 766 mmHg 92%
    02:00 +3°C° 0 mm 3 mps 766 mmHg 92%
    03:00 +2°C° 0 mm 3 mps 767 mmHg 91%
    04:00 +1°C° 0 mm 3 mps 767 mmHg 90%
    05:00 +1°C° 0 mm 3 mps 768 mmHg 90%
    06:00 +1°C° 0 mm 3 mps 768 mmHg 89%
    07:00 +2°C° 0 mm 2 mps 769 mmHg 88%
    08:00 +2°C° 0 mm 2 mps 769 mmHg 86%
    09:00 +2°C° 0 mm 2 mps 770 mmHg 85%
    10:00 +3°C° 0 mm 2 mps 770 mmHg 82%
    11:00 +4°C° 0 mm 2 mps 770 mmHg 79%
    12:00 +5°C° 0 mm 2 mps 771 mmHg 76%
    13:00 +5°C° 0 mm 2 mps 771 mmHg 78%
    14:00 +5°C° 0 mm 2 mps 771 mmHg 81%
    15:00 +5°C° 0 mm 1 mps 771 mmHg 83%
    16:00 +5°C° 0 mm 1 mps 771 mmHg 85%
    17:00 +4°C° 0 mm 1 mps 772 mmHg 86%
    18:00 +4°C° 0 mm 1 mps 772 mmHg 87%
    19:00 +4°C° 0 mm 1 mps 772 mmHg 87%
    20:00 +3°C° 0 mm 1 mps 773 mmHg 87%
    21:00 +3°C° 0 mm 1 mps 773 mmHg 87%
    22:00 +2°C° 0 mm 2 mps 773 mmHg 87%
    23:00 +2°C° 0 mm 2 mps 773 mmHg 88%

    19 December, Tuesday

    Time Temperature Precipitation Wind Pressure Humidity
    00:00 +2°C° 0 mm 2 mps 774 mmHg 88%
    01:00 +2°C° 0 mm 2 mps 774 mmHg 87%
    02:00 +2°C° 0 mm 2 mps 773 mmHg 86%
    03:00 +2°C° 0 mm 2 mps 773 mmHg 85%
    04:00 +1°C° 0 mm 3 mps 773 mmHg 85%
    05:00 +1°C° 0 mm 3 mps 773 mmHg 85%
    06:00 +1°C° 0 mm 3 mps 773 mmHg 85%
    07:00 +1°C° 0 mm 3 mps 774 mmHg 86%
    08:00 +1°C° 0 mm 3 mps 774 mmHg 88%
    09:00 +2°C° 0 mm 3 mps 774 mmHg 89%
    10:00 +3°C° 0 mm 3 mps 774 mmHg 88%
    11:00 +5°C° 0 mm 4 mps 774 mmHg 86%
    12:00 +6°C° 0 mm 4 mps 774 mmHg 85%
    13:00 +6°C° 0 mm 4 mps 774 mmHg 88%
    14:00 +6°C° 0 mm 4 mps 774 mmHg 90%
    15:00 +6°C° 0 mm 4 mps 773 mmHg 93%
    16:00 +7°C° 0 mm 4 mps 773 mmHg 94%
    17:00 +7°C° 0 mm 4 mps 773 mmHg 95%
    18:00 +7°C° 0 mm 4 mps 774 mmHg 96%
    19:00 +7°C° 0 mm 4 mps 774 mmHg 96%
    20:00 +9°C° 0 mm 3 mps 774 mmHg 96%
    21:00 +9°C° 0 mm 3 mps 774 mmHg 97%
    22:00 +9°C° 0 mm 3 mps 774 mmHg 96%
    23:00 +9°C° 0 mm 3 mps 774 mmHg 96%

    20 December, Wednesday

    Time Temperature Precipitation Wind Pressure Humidity
    00:00 +9°C° 0 mm 3 mps 774 mmHg 96%
    01:00 +9°C° 0 mm 3 mps 774 mmHg 96%
    02:00 +9°C° 0 mm 3 mps 774 mmHg 96%
    03:00 +8°C° 0 mm 3 mps 774 mmHg 96%
    04:00 +9°C° 0 mm 3 mps 774 mmHg 96%
    05:00 +9°C° 0 mm 3 mps 774 mmHg 96%
    06:00 +9°C° 0 mm 3 mps 774 mmHg 96%
    07:00 +9°C° 0 mm 3 mps 774 mmHg 96%
    08:00 +9°C° 0 mm 3 mps 774 mmHg 95%
    09:00 +9°C° 0 mm 3 mps 774 mmHg 94%
    10:00 +10°C° 0 mm 4 mps 774 mmHg 92%
    11:00 +11°C° 0 mm 4 mps 774 mmHg 89%
    12:00 +12°C° 0 mm 5 mps 774 mmHg 86%
    13:00 +11°C° 0 mm 4 mps 774 mmHg 88%
    14:00 +11°C° 0 mm 4 mps 774 mmHg 90%
    15:00 +11°C° 0 mm 4 mps 773 mmHg 91%
    16:00 +10°C° 0 mm 4 mps 773 mmHg 92%
    17:00 +10°C° 0 mm 4 mps 773 mmHg 92%
    18:00 +9°C° 0 mm 5 mps 773 mmHg 93%
    19:00 +9°C° 0 mm 5 mps 774 mmHg 93%
    20:00 +9°C° 0 mm 5 mps 774 mmHg 92%
    21:00 +9°C° 0 mm 5 mps 774 mmHg 92%
    22:00 +8°C° 0 mm 5 mps 773 mmHg 92%
    23:00 +8°C° 0 mm 5 mps 773 mmHg 92%

    21 December, Thursday

    Time Temperature Precipitation Wind Pressure Humidity
    00:00 +8°C° 0 mm 5 mps 773 mmHg 92%
    01:00 +8°C° 0 mm 5 mps 773 mmHg 93%
    02:00 +8°C° 0 mm 5 mps 773 mmHg 93%
    03:00 +8°C° 0 mm 5 mps 773 mmHg 94%
    04:00 +8°C° 0 mm 6 mps 772 mmHg 93%
    05:00 +8°C° 0 mm 6 mps 772 mmHg 92%
    06:00 +8°C° 0 mm 6 mps 772 mmHg 91%
    07:00 +9°C° 0 mm 6 mps 772 mmHg 90%
    08:00 +9°C° 0 mm 6 mps 772 mmHg 89%
    09:00 +9°C° 0 mm 6 mps 772 mmHg 87%
    10:00 +9°C° 0 mm 6 mps 772 mmHg 86%
    11:00 +10°C° 0 mm 7 mps 771 mmHg 85%
    12:00 +10°C° 0 mm 7 mps 771 mmHg 83%
    13:00 +10°C° 0 mm 7 mps 770 mmHg 82%
    14:00 +10°C° 0 mm 7 mps 769 mmHg 82%
    15:00 +10°C° 0 mm 7 mps 769 mmHg 81%
    16:00 +10°C° 0.3 mm 7 mps 769 mmHg 82%
    17:00 +10°C° 0.3 mm 7 mps 769 mmHg 84%
    18:00 +10°C° 0.3 mm 8 mps 768 mmHg 86%
    19:00 +9°C° 0.1 mm 8 mps 769 mmHg 84%
    20:00 +9°C° 0.1 mm 8 mps 770 mmHg 82%
    21:00 +7°C° 0.1 mm 8 mps 771 mmHg 81%
    22:00 +6°C° 0 mm 7 mps 772 mmHg 81%
    23:00 +7°C° 0 mm 6 mps 773 mmHg 80%
    Show more